DECAYED
Showing default

FLOCK 4G 32, 62643 (Decayed)

Orbit data source: Space-Track

FLOCK 4G 32, 62643 was a payload satellite owned by Planet (US) in LEO that was launched on Tue, 14 Jan 2025 UTC via an FALCON 9 launch vehicle from the Air Force Western Test Range (AFWTR). Payload-class satellites include a variety of spacecraft equipped with specific instruments for various scientific and technological missions. These include communications satellites like Starlink; space stations such as the ISS; scientific satellites like the Hubble; Earth observation satellites from companies like Planet Labs, Umbra, and HawkEye 360; GPS; miniature CubeSats for education and research; and military/defense satellites.

Not visible in the next 10 days
Identifier
62643, 2025-009AL
Orbit
Decayed
Country
Flag of USUS
Related business
Manufacturer
Planet
Mission
Decayed Commercial Imaging
Bus & Motor
CUBESAT 3U, Unknown motor
Mass
5.7 kg wet, 5.7 kg dry
Launch date (UTC)
2025-01-14 (2 years ago)
Launch vehicle
FALCON 9
Launch site
Air Force Western Test Range (AFWTR)
Object type
Payload
Rocket body
Debris
Shape & HBR
Box + 2 Pan, 1.0 m
Radar Cross Section
0.072 m², Medium (>0.1 m² and < 1m²)

Expand to show TLE details & history
Last TLE update: 2 months ago

TLE from 2 months ago
0 FLOCK 4G 32
1 62643U 25009AL  26169.70607831  .06217787  24597-5  18436-2 0  9997
2 62643  97.3735 260.8940 0016033 267.9840  91.9617 16.26804780 79781
Epoch: 2026-06-18T16:56Z
TLE epoch observation values (Epoch: 2026-06-18T16:56:45.165Z)
Latitude
-0°
Longitude
99.76025°
Altitude
204.753 km
Speed
7.783 km/s
True Right ascension
17h 23m 34s
True Declination
0° 00' 00"
Sunlit
Object was in full shadow at epoch
Visualization orbit readout
Latitude
Unknown
Longitude
Unknown
Altitude
Unknown
Speed
Unknown
Apparent Right ascension
Unknown
Apparent Declination
Unknown
Sunlit
N/A
Visualization observer readout
Local Sidereal Time
04:55:52
Azimuth
Unknown
Elevation
Unknown
Doppler factor
Unknown
Orbital elements
Apogee altitude
208.508 km
Perigee altitude
187.421 km
Semi-major axis
6,576.101 km
Eccentricity
0.0016
Inclination
97.3735°
RAAN
260.894°
Arg. of periapsis
267.984°
True anomaly
92.1453°
Mean anomaly
91.9617°
Eccentric anomaly
92.0535°
Mean motion
4.06996 °/min
Orbital period
88.45 mins
BSTAR
0.0018436
Loading maneuver chart data...
Computing Atmospheric mass density...
Loading historical data...
Loading historical data...
Loading historical data...
Loading historical data...
Loading historical data...
Loading historical data...
Loading historical data...

Documentation

Showing up to 5 results
|